Biloxi, MS

2:36 PM CDT on October 18, 2017 (GMT -0500)
Keesler Air Force Base

Weather History for KBIX - April, 2014

Change the Weather History Date:

Wednesday, April 16, 2014

  Actual Average Record
Temperature  
Mean Temperature 48 °F -  
Max Temperature 59 °F 76 °F 83 °F (1972)
Min Temperature 39 °F 58 °F 39 °F (2014)
Degree Days  
Heating Degree Days 16    
Moisture  
Dew Point 38 °F    
Average Humidity 64    
Maximum Humidity 89    
Minimum Humidity 38    
Precipitation  
Precipitation 0.00 in - - ()
Sea Level Pressure  
Sea Level Pressure 30.19 in    
Wind  
Wind Speed 7 mph (East)    
Max Wind Speed 10 mph    
Max Gust Speed -    
Visibility 10 miles    
Events      
Averages and records for this station are not official NWS values.
T = Trace of Precipitation, MM = Missing Value Source: NWS Daily Summary

Daily Weather History Graph

Daily Weather History Graph

Search for Another Location

Airport or City:

Trip Planner

Search our weather history database for the weather conditions in past years. The results will help you decide how hot, cold, wet, or windy it might be!

Date:

Astronomy

Apr. 16, 2014 Rise Set
Actual Time 6:27 AM CDT 7:24 PM CDT
Civil Twilight 6:02 AM CDT 7:48 PM CDT
Nautical Twilight 5:33 AM CDT 8:17 PM CDT
Astronomical Twilight 5:03 AM CDT 8:48 PM CDT
Moon 9:01 PM CDT (4/16) 7:18 AM CDT (4/16)
Length of Visible Light 13h 46m
Length of Day
12h 56m
Full, 98% of the Moon is Illuminated
Apr 16
Full
Apr 22
Last Quarter
Apr 29
New
May 6
First Quarter
May 14
Full

Hourly Weather History & Observations

Time (CDT) Temp. Windchill Dew Point Humidity Pressure Visibility Wind Dir Wind Speed Gust Speed Precip Events Conditions
12:58 AM 45.1 °F 40.8 °F 35.4 °F 69% 30.18 in 10.0 mi NNE 8.1 mph - N/A   Clear
1:58 AM 43.5 °F 39.4 °F 36.0 °F 75% 30.17 in 10.0 mi NNE 6.9 mph - N/A   Clear
2:58 AM 42.3 °F 38.6 °F 35.2 °F 76% 30.16 in 10.0 mi NE 5.8 mph - N/A   Clear
3:58 AM 42.1 °F 38.4 °F 34.7 °F 75% 30.18 in 10.0 mi NNE 5.8 mph - N/A   Clear
4:58 AM 41.2 °F 36.6 °F 34.2 °F 76% 30.19 in 10.0 mi North 6.9 mph - N/A   Clear
5:58 AM 39.9 °F 35.1 °F 34.2 °F 80% 30.20 in 10.0 mi NNE 6.9 mph - N/A   Clear
6:58 AM 39.9 °F 35.8 °F 34.7 °F 82% 30.23 in 10.0 mi NE 5.8 mph - N/A   Clear
7:58 AM 43.9 °F 39.9 °F 34.9 °F 71% 30.25 in 10.0 mi ENE 6.9 mph - N/A   Clear
8:58 AM 44.6 °F 39.2 °F 33.8 °F 66% 30.25 in 10.0 mi East 10.4 mph - N/A   Clear
9:58 AM 44.6 °F 39.2 °F 33.8 °F 66% 30.25 in 10.0 mi East 10.4 mph - N/A   Clear
10:58 AM 53.2 °F - 31.6 °F 44% 30.26 in 10.0 mi ENE 6.9 mph - N/A   Clear
11:48 AM 55.4 °F - 32.0 °F 41% 30.23 in 2.5 mi NE 3.5 mph - N/A   Haze
11:57 AM 57.2 °F - 32.0 °F 38% 30.23 in 10.0 mi Variable 3.5 mph - N/A   Clear
11:58 AM 57.2 °F - 32.0 °F 38% 30.23 in 10.0 mi South 5.8 mph - N/A   Clear
12:58 PM 56.8 °F - 35.2 °F 44% 30.21 in 10.0 mi South 6.9 mph - N/A   Clear
1:58 PM 57.6 °F - 38.3 °F 49% 30.20 in 10.0 mi SSE 5.8 mph - N/A   Clear
2:58 PM 58.6 °F - 39.0 °F 48% 30.18 in 10.0 mi SSW 8.1 mph - N/A   Clear
3:58 PM 58.3 °F - 41.5 °F 54% 30.16 in 10.0 mi SSW 8.1 mph - N/A   Clear
4:58 PM 57.9 °F - 41.9 °F 55% 30.16 in 10.0 mi South 8.1 mph - N/A   Clear
5:58 PM 57.2 °F - 41.7 °F 56% 30.16 in 10.0 mi South 5.8 mph - N/A   Clear
6:58 PM 56.3 °F - 43.0 °F 61% 30.15 in 10.0 mi SE 6.9 mph - N/A   Clear
7:58 PM 55.8 °F - 45.7 °F 69% 30.15 in 10.0 mi ESE 4.6 mph - N/A   Clear
8:58 PM 55.2 °F - 47.3 °F 75% 30.16 in 10.0 mi ESE 3.5 mph - N/A   Clear
9:58 PM 55.2 °F - 47.5 °F 75% 30.18 in 10.0 mi ESE 3.5 mph - N/A   Clear
10:58 PM 54.1 °F - 49.3 °F 84% 30.17 in 10.0 mi ENE 4.6 mph - N/A   Clear
11:58 PM 51.8 °F - 48.7 °F 89% 30.18 in 10.0 mi NE 2.3 mph - N/A   Clear